Flag for U.S.A. Weather past 2 weeks in Vancouver, Washington, U.S.A.

Now
71 °F

Cloudy.


Feels Like: 76 °F
Forecast: 58 / 79 °F
Wind: No wind

Location: Vancouver - Pearson Airpark

Current Time: Sep 18, 2014 at 7:27:01 PM

Latest Report: Sep 18, 2014 at 6:53 PM


Visibility: 10 mi

Pressure: 29.90 "Hg

Humidity: 59%

Dew point: 56 °F

Location of VancouverLocation

Historic Weather in Vancouver — Graph

°F

Vancouver temperature yesterday

Maximum temperature yesterday: 76 °F (at 3:53 PM)
Minimum temperature yesterday: 58 °F (at 2:53 AM)
Average temperature yesterday: 67 °F

Past Weeks' High & Low Weather Summary

 TemperatureHumidityPressure
High95 °F (Sep 6, 3:53 PM)90% (Sep 8, 2:53 AM)30.22 "Hg (Sep 8, 2:53 AM)
Low47 °F (Sep 14, 6:53 AM)10% (Sep 13, 4:53 PM)29.68 "Hg (Sep 17, 5:53 PM)
Average67 °F53%29.93 "Hg
* Reported Sep 3 5:53 PM — Sep 18 5:53 PM, Vancouver, Weather by CustomWeather, © 2014

Note: Actual official high and low records may vary slightly from our data, if they occured in-between our weather recording intervals... More about our weather records

Advertising

Vancouver weather history for previous 24 hours

 ConditionsComfort  
Time TempWeatherWind HumidityBarometerVisibility
5:53 PM
Sep 18
71 °FOvercast.No wind57%29.89 "Hg10 mi
4:53 PM73 °FOvercast.No wind57%29.88 "Hg10 mi
3:53 PM70 °FOvercast.3 mph64%29.88 "Hg10 mi
2:53 PM69 °FOvercast.5 mph66%29.87 "Hg10 mi
1:53 PM70 °FPartly sunny.5 mph66%29.87 "Hg10 mi
12:53 PM67 °FMore clouds than sun.7 mph76%29.88 "Hg10 mi
11:53 AM65 °FCloudy.No wind78%29.87 "Hg10 mi
10:53 AM62 °FOvercast.3 mph90%29.85 "Hg10 mi
9:53 AM62 °FCloudy.No wind86%29.83 "Hg10 mi
8:53 AM61 °FMostly cloudy.No wind90%29.81 "Hg10 mi
7:53 AM61 °FLight rain. Fog.No wind90%29.80 "Hg5 mi
6:53 AM62 °FLight rain. Overcast.No wind90%29.77 "Hg8 mi
5:53 AM63 °FLight rain. Overcast.No wind84%29.75 "Hg10 mi
4:53 AM64 °FMostly cloudy.3 mph78%29.73 "Hg10 mi
3:53 AM62 °FOvercast.No wind83%29.73 "Hg10 mi
2:53 AM62 °FPassing clouds.No wind80%29.73 "Hg10 mi
1:53 AM62 °FPassing clouds.No wind80%29.73 "Hg10 mi
12:53 AM66 °FClear.No wind70%29.73 "Hg10 mi
11:53 PM
Sep 17
66 °FPassing clouds.5 mph70%29.73 "Hg10 mi
10:53 PM67 °FPassing clouds.3 mph71%29.73 "Hg10 mi
9:53 PM67 °FPassing clouds.No wind71%29.74 "Hg10 mi
8:53 PM69 °FClear.6 mph68%29.73 "Hg10 mi
7:53 PM72 °FPassing clouds.3 mph57%29.70 "Hg10 mi
Weather by CustomWeather, © 2014

See weather overviewHow to use our weather pages